Find Starlink 34088

NORAD ID: 64025 Int'l Des: 2025-102 Owner: SPXS Country: US Constellation: starlink operational
LEOCIRCULAR

当前视图

正在加载3D地球...

About Starlink 34088

Starlink 34088 (NORAD 64025) is a starlink constellation satellite (v2 mini) launched May 16, 2025 by SPXS of US. It operates in LEO, CIRCULAR orbit with a mass of 575.00 kg.

即将过境

Passes for default location (London). Set your location on the main map for personalized predictions.

高度历史

Loading altitude history...

两行轨道根数

1 64025U 25102D 26235.91668981 .00043203 00000-0 36079-2 0 9992
2 64025 70.0008 52.9609 0002782 268.3550 227.3822 14.98312651 5723
Epoch: Aug 23, 2026 • Age: 8 hours

当前状态

高度 574.0 km
远地点 / 近地点 N/A
速度 7.57 km/s
星下点 8.16°N, 164.04°E
发射日期 May 16, 2025
运行时间 1.2 years
类型 internet

技术详情

分类 Payload
质量 575.00 kg
干质量 530.00 kg
总质量 575.00 kg
长度 0.30 m
直径 4.10 m
跨度 29.00 m
形状 Box + pan
制造商 SPXS
平台类型 Starlink V2MO
阶段状态 In Orbit
所有者/国家 SPXS/US

Most Searched